• în Republica Moldova
  • Lista ţărilor
  • Pe 7 zile
  • Temperatura apei
  • Hartă satelitară
  • Meteo pe hartă
  • Widget-uri
  • user-avatar
    Intrare

    Meteo pe oră la Berat

    Astăzi, 25 Aprilie, Miercuri

    Timp Temperatura Precipitaţii Vânt Presiune Umiditate
    00:00 +18°C° 0 mm 1 m/s 746 mmHg 81%
    01:00 +16°C° 0 mm 1 m/s 746 mmHg 79%
    02:00 +16°C° 0 mm 1 m/s 746 mmHg 75%
    03:00 +16°C° 0 mm 1 m/s 746 mmHg 71%
    04:00 +16°C° 0 mm 1 m/s 746 mmHg 68%
    05:00 +18°C° 0 mm 1 m/s 746 mmHg 61%
    06:00 +20°C° 0 mm 1 m/s 746 mmHg 54%
    07:00 +21°C° 0 mm 1 m/s 746 mmHg 47%
    08:00 +23°C° 0 mm 1 m/s 746 mmHg 43%
    09:00 +24°C° 0 mm 1 m/s 746 mmHg 39%
    10:00 +26°C° 0 mm 2 m/s 746 mmHg 35%
    11:00 +26°C° 0 mm 2 m/s 746 mmHg 34%
    12:00 +27°C° 0 mm 2 m/s 746 mmHg 34%
    13:00 +28°C° 0 mm 3 m/s 746 mmHg 34%
    14:00 +27°C° 0 mm 3 m/s 745 mmHg 37%
    15:00 +27°C° 0 mm 3 m/s 745 mmHg 41%
    16:00 +26°C° 0 mm 3 m/s 745 mmHg 44%
    17:00 +24°C° 0 mm 2 m/s 745 mmHg 52%
    18:00 +21°C° 0 mm 2 m/s 745 mmHg 61%
    19:00 +20°C° 0 mm 1 m/s 745 mmHg 69%
    20:00 +19°C° 0 mm 1 m/s 745 mmHg 70%
    21:00 +19°C° 0 mm 1 m/s 745 mmHg 71%
    22:00 +18°C° 0 mm 1 m/s 745 mmHg 72%
    23:00 +18°C° 0 mm 1 m/s 745 mmHg 70%

    Mâine, 26 Aprilie, Joi

    Timp Temperatura Precipitaţii Vânt Presiune Umiditate
    00:00 +18°C° 0 mm 1 m/s 745 mmHg 67%
    01:00 +18°C° 0 mm 1 m/s 745 mmHg 65%
    02:00 +18°C° 0 mm 1 m/s 744 mmHg 63%
    03:00 +18°C° 0 mm 1 m/s 744 mmHg 62%
    04:00 +18°C° 0 mm 1 m/s 744 mmHg 60%
    05:00 +19°C° 0 mm 1 m/s 744 mmHg 57%
    06:00 +20°C° 0 mm 1 m/s 744 mmHg 54%
    07:00 +22°C° 0 mm 1 m/s 744 mmHg 51%
    08:00 +24°C° 0 mm 1 m/s 744 mmHg 47%
    09:00 +25°C° 0 mm 1 m/s 744 mmHg 43%
    10:00 +27°C° 0 mm 1 m/s 744 mmHg 39%
    11:00 +27°C° 0 mm 2 m/s 744 mmHg 39%
    12:00 +28°C° 0 mm 2 m/s 743 mmHg 38%
    13:00 +28°C° 0 mm 3 m/s 743 mmHg 38%
    14:00 +28°C° 0 mm 3 m/s 743 mmHg 42%
    15:00 +27°C° 0 mm 3 m/s 742 mmHg 46%
    16:00 +27°C° 0 mm 3 m/s 742 mmHg 49%
    17:00 +25°C° 0,3 mm 2 m/s 742 mmHg 58%
    18:00 +23°C° 0,3 mm 2 m/s 742 mmHg 67%
    19:00 +20°C° 0,3 mm 1 m/s 742 mmHg 76%
    20:00 +20°C° 0 mm 1 m/s 743 mmHg 77%
    21:00 +20°C° 0 mm 1 m/s 743 mmHg 78%
    22:00 +17°C° 0 mm 0 m/s 743 mmHg 80%
    23:00 +19°C° 0 mm 1 m/s 743 mmHg 79%

    Poimâine, 27 Aprilie, Vineri

    Timp Temperatura Precipitaţii Vânt Presiune Umiditate
    00:00 +19°C° 0 mm 1 m/s 743 mmHg 78%
    01:00 +18°C° 0 mm 1 m/s 743 mmHg 77%
    02:00 +18°C° 0 mm 1 m/s 743 mmHg 75%
    03:00 +18°C° 0 mm 1 m/s 742 mmHg 74%
    04:00 +18°C° 0 mm 1 m/s 742 mmHg 72%
    05:00 +19°C° 0 mm 1 m/s 742 mmHg 68%
    06:00 +21°C° 0 mm 1 m/s 743 mmHg 64%
    07:00 +22°C° 0 mm 1 m/s 743 mmHg 59%
    08:00 +24°C° 0 mm 1 m/s 743 mmHg 53%
    09:00 +26°C° 0 mm 2 m/s 743 mmHg 47%
    10:00 +28°C° 0 mm 2 m/s 743 mmHg 41%
    11:00 +29°C° 0 mm 2 m/s 743 mmHg 40%
    12:00 +30°C° 0 mm 2 m/s 743 mmHg 39%
    13:00 +30°C° 0 mm 2 m/s 743 mmHg 38%
    14:00 +29°C° 0,1 mm 2 m/s 742 mmHg 43%
    15:00 +28°C° 0,1 mm 2 m/s 742 mmHg 47%
    16:00 +28°C° 0,1 mm 2 m/s 742 mmHg 51%
    17:00 +26°C° 0,2 mm 1 m/s 742 mmHg 57%
    18:00 +24°C° 0,2 mm 1 m/s 742 mmHg 63%
    19:00 +22°C° 0,2 mm 1 m/s 742 mmHg 69%
    20:00 +22°C° 0,4 mm 1 m/s 743 mmHg 71%
    21:00 +22°C° 0,4 mm 1 m/s 743 mmHg 73%
    22:00 +21°C° 0,4 mm 1 m/s 744 mmHg 74%
    23:00 +21°C° 0,5 mm 1 m/s 744 mmHg 75%

    28 Aprilie, Sâmbătă

    Timp Temperatura Precipitaţii Vânt Presiune Umiditate
    00:00 +21°C° 0,5 mm 1 m/s 744 mmHg 76%
    01:00 +19°C° 0,5 mm 2 m/s 743 mmHg 78%
    02:00 +19°C° 0,1 mm 2 m/s 743 mmHg 78%
    03:00 +19°C° 0,1 mm 2 m/s 743 mmHg 79%
    04:00 +18°C° 0,1 mm 2 m/s 743 mmHg 79%
    05:00 +20°C° 0 mm 2 m/s 743 mmHg 75%
    06:00 +21°C° 0 mm 2 m/s 743 mmHg 71%
    07:00 +23°C° 0 mm 2 m/s 743 mmHg 67%
    08:00 +24°C° 0 mm 2 m/s 744 mmHg 57%
    09:00 +26°C° 0 mm 2 m/s 744 mmHg 48%
    10:00 +28°C° 0 mm 2 m/s 744 mmHg 39%
    11:00 +28°C° 0 mm 2 m/s 744 mmHg 39%
    12:00 +28°C° 0 mm 3 m/s 744 mmHg 38%
    13:00 +29°C° 0 mm 3 m/s 743 mmHg 38%
    14:00 +28°C° 0 mm 2 m/s 743 mmHg 43%
    15:00 +27°C° 0 mm 2 m/s 743 mmHg 48%
    16:00 +26°C° 0 mm 2 m/s 743 mmHg 53%
    17:00 +25°C° 0 mm 2 m/s 743 mmHg 58%
    18:00 +24°C° 0 mm 2 m/s 743 mmHg 63%
    19:00 +21°C° 0 mm 2 m/s 743 mmHg 68%
    20:00 +21°C° 0 mm 3 m/s 743 mmHg 71%
    21:00 +20°C° 0 mm 3 m/s 743 mmHg 73%
    22:00 +19°C° 0 mm 3 m/s 743 mmHg 76%
    23:00 +19°C° 0,1 mm 3 m/s 743 mmHg 77%

    29 Aprilie, Duminică

    Timp Temperatura Precipitaţii Vânt Presiune Umiditate
    00:00 +18°C° 0,1 mm 3 m/s 743 mmHg 77%
    01:00 +18°C° 0,1 mm 3 m/s 743 mmHg 78%
    02:00 +18°C° 0,1 mm 3 m/s 743 mmHg 76%
    03:00 +17°C° 0,1 mm 3 m/s 743 mmHg 74%
    04:00 +17°C° 0,1 mm 3 m/s 743 mmHg 72%
    05:00 +18°C° 0 mm 3 m/s 743 mmHg 69%
    06:00 +19°C° 0 mm 3 m/s 743 mmHg 66%
    07:00 +20°C° 0 mm 3 m/s 743 mmHg 63%
    08:00 +23°C° 0 mm 2 m/s 743 mmHg 58%
    09:00 +25°C° 0 mm 2 m/s 743 mmHg 52%
    10:00 +27°C° 0 mm 2 m/s 743 mmHg 47%
    11:00 +27°C° 0 mm 2 m/s 743 mmHg 46%
    12:00 +28°C° 0 mm 2 m/s 743 mmHg 45%
    13:00 +28°C° 0 mm 2 m/s 743 mmHg 44%
    14:00 +28°C° 0 mm 2 m/s 742 mmHg 45%
    15:00 +28°C° 0 mm 2 m/s 742 mmHg 46%
    16:00 +27°C° 0 mm 2 m/s 742 mmHg 47%
    17:00 +26°C° 0,3 mm 2 m/s 742 mmHg 54%
    18:00 +24°C° 0,3 mm 2 m/s 742 mmHg 61%
    19:00 +21°C° 0,3 mm 2 m/s 742 mmHg 68%
    20:00 +20°C° 0,2 mm 2 m/s 743 mmHg 71%
    21:00 +20°C° 0,2 mm 2 m/s 743 mmHg 74%
    22:00 +20°C° 0,2 mm 1 m/s 743 mmHg 76%
    23:00 +20°C° 0,3 mm 1 m/s 743 mmHg 77%

    30 Aprilie, Luni

    Timp Temperatura Precipitaţii Vânt Presiune Umiditate
    00:00 +19°C° 0,3 mm 1 m/s 743 mmHg 78%
    01:00 +19°C° 0,3 mm 1 m/s 743 mmHg 79%
    02:00 +19°C° 0,1 mm 1 m/s 743 mmHg 79%
    03:00 +19°C° 0,1 mm 1 m/s 742 mmHg 80%
    04:00 +18°C° 0,1 mm 1 m/s 742 mmHg 80%
    05:00 +20°C° 0,1 mm 1 m/s 743 mmHg 75%
    06:00 +21°C° 0,1 mm 1 m/s 743 mmHg 70%
    07:00 +22°C° 0,1 mm 1 m/s 743 mmHg 65%
    08:00 +24°C° 0 mm 1 m/s 743 mmHg 60%
    09:00 +25°C° 0 mm 1 m/s 743 mmHg 55%
    10:00 +27°C° 0 mm 1 m/s 743 mmHg 50%
    11:00 +27°C° 0,2 mm 2 m/s 743 mmHg 49%
    12:00 +27°C° 0,2 mm 2 m/s 743 mmHg 49%
    13:00 +28°C° 0,2 mm 2 m/s 742 mmHg 48%
    14:00 +27°C° 0,8 mm 3 m/s 742 mmHg 53%
    15:00 +26°C° 0,8 mm 3 m/s 742 mmHg 57%
    16:00 +25°C° 0,8 mm 3 m/s 742 mmHg 62%
    17:00 +24°C° 0,4 mm 2 m/s 742 mmHg 68%
    18:00 +22°C° 0,4 mm 1 m/s 742 mmHg 74%
    19:00 +21°C° 0,4 mm 1 m/s 742 mmHg 80%
    20:00 +21°C° 0 mm 1 m/s 742 mmHg 80%
    21:00 +20°C° 0 mm 1 m/s 742 mmHg 80%
    22:00 +20°C° 0 mm 1 m/s 743 mmHg 80%
    23:00 +19°C° 0 mm 1 m/s 743 mmHg 80%
    Arată mai mult